{"data":{"norad_id":62428,"epoch":"2026-09-21T12:47:07.849536Z","epoch_age_seconds":85404,"freshness":"FRESH","line1":"1 62428U 24249V   26264.53272974  .00008389  00000+0  31391-3 0  9999","line2":"2 62428  43.0019 295.9819 0001425 278.8939  81.1751 15.27591141 97670","mean_motion":15.27591141,"eccentricity":0.0001425,"inclination_deg":43.0019,"raan_deg":295.9819,"arg_perigee_deg":278.8939,"mean_anomaly_deg":81.1751,"bstar":0.00031391,"rev_number":9767,"period_min":94.26606120911,"perigee_km":482.03802181556,"apogee_km":483.99345034534,"semimajor_km":6861.1527360805,"source":"CELESTRAK","updated_at":"2026-09-22T09:00:49.579238Z"}}